Wind_Speed
1 4 6 7 9 10 10 12 14 8 4 4 5 8 9 10 12 13 16 12 3 5 10 13 18 17 16 16 15 18 19 20 22 17 13 15 16 15 11 7 7 7 4 4 8 11 12 15 18 21 21 20 18 17 16 16 17 19 21 22 24 26 27 26 24 24 25 24 23 23 25 28 28 31 36 39 41 42 43 46 48 49 50 50 50 50
2 6 8 12 13 6 3 6 8 8 7 9 8 9 9 9 12 12 14 13 3 2 8 10 16 17 17 19 18 18 18 19 19 15 15 18 17 9 6 8 7 5 4 7 9 9 11 16 21 22 21 19 17 15 14 13 13 14 16 17 20 22 24 26 25 25 26 26 26 25 25 25 23 28 35 35 38 42 43 44 46 47 48 49 50 50
5 8 11 15 8 1 1 1 4 8 10 10 7 7 7 8 11 10 10 7 2 1 8 11 15 15 17 22 20 17 15 15 15 16 17 15 12 8 9 9 8 7 7 8 8 9 12 17 21 21 20 20 19 18 16 14 12 11 12 13 15 18 22 25 25 26 26 25 26 25 23 22 20 23 31 33 35 39 42 43 44 46 46 47 48 48
5 6 11 12 4 3 6 4 4 7 7 8 7 6 7 8 8 7 5 1 3 5 9 12 14 12 15 16 12 10 10 10 14 17 13 6 6 8 8 6 6 6 6 8 10 11 12 15 19 20 19 21 21 20 19 19 16 12 9 10 11 13 18 22 24 28 27 24 26 27 26 24 21 21 25 29 32 34 35 38 40 42 44 45 46 47
8 1 2 4 4 8 10 6 7 8 7 8 8 7 10 10 10 10 6 5 8 7 4 10 12 7 6 2 2 2 3 7 14 12 6 3 4 4 4 4 3 4 6 9 11 11 12 14 18 20 21 21 20 21 25 24 19 15 11 8 8 9 13 17 21 25 26 24 23 23 24 22 19 20 19 21 24 23 25 29 32 35 39 41 43 45
9 1 4 3 3 6 8 7 10 8 6 7 7 11 14 13 13 13 9 7 7 4 3 8 10 3 2 3 1 2 3 10 12 6 5 5 6 5 5 4 4 7 9 10 10 11 12 13 17 21 24 24 23 26 30 27 23 19 15 11 8 6 8 12 16 20 22 21 19 17 19 17 16 17 17 17 18 18 23 28 29 33 37 40 42 44
4 1 2 3 3 4 6 8 8 7 6 6 3 6 10 12 11 10 8 5 5 4 2 3 5 6 3 3 5 5 7 14 10 4 8 10 9 5 5 6 8 10 10 10 11 11 11 13 16 20 25 27 26 29 33 30 28 25 21 16 11 6 5 9 12 16 18 17 16 16 17 16 15 15 15 16 17 18 23 27 30 34 36 39 41 43
2 3 2 3 4 5 6 8 6 8 6 4 1 1 2 5 5 4 4 4 4 6 3 3 4 8 6 2 3 7 10 12 8 5 12 12 8 7 8 10 11 11 11 10 10 10 12 15 17 20 24 26 26 31 34 33 31 29 26 22 16 10 7 8 10 12 15 15 13 15 16 15 15 14 11 11 14 16 18 22 27 30 32 36 39 40
3 3 4 6 5 6 6 3 3 10 6 2 2 1 1 0 1 2 2 4 3 5 4 4 4 6 7 1 2 7 7 6 5 5 13 12 8 9 11 12 12 12 11 9 8 10 14 17 19 21 22 24 27 31 34 34 32 30 28 26 22 17 12 10 10 9 13 14 13 13 14 14 14 14 12 10 11 12 14 18 22 25 27 32 36 38
2 2 3 6 5 5 3 2 1 8 5 1 3 3 4 3 2 1 2 3 2 5 6 6 9 6 7 2 4 2 2 4 3 5 11 10 10 11 11 12 12 10 8 7 8 12 15 17 20 23 23 25 27 30 34 37 36 33 30 27 24 21 17 14 12 9 10 12 14 12 12 14 14 12 11 11 11 11 13 15 18 20 23 26 32 37
2 2 1 4 5 2 4 4 2 2 1 2 4 1 1 2 1 1 1 2 3 7 6 8 14 9 5 1 3 2 1 2 3 3 8 10 12 13 12 12 11 9 8 8 10 13 16 19 22 24 25 26 26 29 34 39 38 35 33 28 24 24 21 17 14 10 9 10 12 12 11 13 13 12 11 12 12 11 12 14 15 17 19 22 27 32
3 4 3 2 2 2 5 3 2 2 1 1 1 1 2 2 1 2 1 1 5 7 2 3 7 9 8 3 1 1 1 1 2 5 8 10 12 13 12 11 11 10 11 11 12 13 15 18 22 25 25 24 26 29 32 34 34 34 33 29 26 26 25 19 16 13 9 9 10 12 12 12 13 13 13 13 13 12 12 14 14 14 16 19 22 26
3 5 3 0 1 4 4 2 2 2 2 3 2 1 3 3 2 3 2 2 5 5 1 3 1 5 9 6 5 9 6 2 3 4 6 9 12 13 11 10 10 10 11 13 13 14 14 15 19 23 23 23 25 27 28 30 31 30 30 29 27 27 27 23 18 16 12 10 10 10 12 12 12 13 13 14 14 13 13 13 14 14 16 17 20 26
3 1 3 3 2 6 9 6 4 3 5 6 5 4 4 4 4 5 4 3 6 2 2 1 2 4 7 5 9 10 4 8 8 6 7 11 14 12 10 10 10 11 13 13 13 14 14 14 17 19 20 22 23 24 25 26 27 27 28 29 28 28 31 30 26 22 18 14 12 12 13 14 13 12 12 13 13 13 13 13 14 16 17 19 23 29
5 5 4 6 1 7 13 9 2 2 5 6 3 2 4 4 5 5 4 6 8 3 2 2 2 4 4 1 3 3 9 10 9 11 12 13 12 9 9 11 12 13 13 12 12 13 13 15 18 18 18 20 21 23 24 24 25 25 26 27 29 30 33 36 34 30 26 22 19 17 16 16 16 14 13 13 13 13 13 14 15 17 18 21 24 28
6 7 1 2 1 6 10 4 2 3 2 3 2 1 4 4 4 5 5 4 5 4 2 4 3 4 3 3 3 6 13 11 10 13 13 12 11 9 10 11 11 12 11 11 11 12 14 16 18 18 19 19 20 22 23 24 24 24 24 24 26 28 31 36 37 35 32 30 26 23 19 17 17 16 16 16 16 16 17 18 19 20 21 22 25 27
5 5 2 3 1 4 3 0 2 2 2 3 3 4 2 1 1 5 6 0 0 6 6 4 6 6 7 8 1 11 14 12 11 12 12 11 10 10 10 10 9 9 9 10 9 10 12 15 17 17 18 19 20 21 22 22 23 23 23 24 25 27 29 33 35 34 33 33 31 27 24 20 18 17 18 18 20 21 22 23 23 23 24 25 27 28
4 6 2 3 3 1 2 2 1 1 1 3 3 2 1 1 0 3 5 2 3 8 5 5 12 12 9 6 5 13 13 11 11 10 10 9 9 10 9 8 8 8 8 8 8 9 10 12 14 15 15 17 18 18 19 20 20 20 21 22 24 25 27 29 30 29 30 32 33 32 30 27 24 22 20 19 20 22 23 24 25 25 26 27 28 29
1 5 4 1 1 1 2 2 2 0 1 1 1 2 0 2 3 3 3 3 6 9 6 8 14 12 9 10 4 6 9 10 9 8 9 9 9 8 7 7 7 7 6 6 7 7 8 10 12 13 14 15 16 17 18 18 19 20 23 26 27 25 24 24 25 25 26 29 32 33 33 32 30 27 24 21 21 20 21 23 25 26 27 28 29 29
2 3 3 2 2 1 3 3 4 3 2 1 1 2 0 2 4 3 2 2 6 9 8 9 10 9 9 8 4 4 7 7 7 7 8 8 7 6 5 5 5 5 4 4 4 5 6 8 11 12 13 14 15 16 16 17 18 21 25 32 34 32 31 31 30 29 29 29 29 31 33 33 33 31 28 25 22 20 19 21 23 25 27 28 29 29
1 2 3 0 0 1 3 4 4 4 4 4 4 4 3 2 2 3 3 3 6 9 9 10 10 8 4 2 5 8 8 6 7 8 6 5 6 5 4 3 3 3 3 2 3 4 5 7 9 11 11 12 12 14 15 16 19 21 24 28 31 32 34 35 36 35 33 31 30 30 31 31 31 32 31 29 25 21 19 20 21 23 24 25 27 28
2 2 4 5 3 6 7 3 3 4 3 3 4 5 6 6 4 6 7 7 8 8 7 9 10 5 1 4 6 8 7 6 7 7 7 6 5 4 4 3 3 3 3 4 4 4 5 7 9 10 10 11 12 14 17 18 20 22 23 25 27 29 30 31 32 33 32 32 31 30 29 29 30 31 31 30 27 23 20 19 19 20 21 22 24 26
1 2 5 8 7 10 11 3 2 2 1 1 4 3 3 3 4 7 8 5 5 4 3 6 8 3 3 4 6 8 7 7 6 7 7 5 4 4 4 3 4 4 5 5 5 5 6 7 9 10 11 12 13 15 16 17 18 18 19 21 23 25 26 27 28 28 27 28 28 27 29 30 31 31 30 29 27 26 24 23 20 19 19 20 21 22
1 1 5 7 7 8 8 0 4 1 1 2 3 2 2 4 6 7 6 4 4 5 4 7 8 3 1 1 5 8 8 7 6 5 6 5 4 5 5 5 6 6 7 7 6 6 7 8 10 11 12 13 13 14 14 14 15 14 14 16 17 19 21 24 25 25 25 25 24 23 25 28 29 30 31 29 28 28 28 27 25 22 19 18 19 20
1 2 3 5 5 4 5 3 1 1 1 1 2 1 2 5 7 7 4 3 4 8 10 10 8 4 2 3 4 6 7 6 6 5 5 5 4 4 5 6 7 7 8 9 9 9 9 9 10 11 11 11 12 12 12 12 12 12 12 13 13 14 16 18 20 21 22 23 24 23 24 26 25 27 30 31 30 29 29 28 27 27 24 20 18 19
2 2 2 5 6 5 6 6 3 0 1 2 2 3 3 4 5 6 5 5 5 6 10 10 8 4 0 3 6 3 5 5 6 5 4 4 4 3 3 3 4 4 5 6 7 7 8 9 10 12 12 12 12 12 12 12 12 12 12 12 13 13 13 14 15 16 16 18 19 20 23 26 26 27 29 30 29 29 30 30 29 29 27 23 20 19
2 3 5 8 9 9 10 9 6 4 6 7 7 7 9 9 8 7 7 8 7 7 8 8 9 11 9 12 14 4 5 4 4 4 3 3 3 2 2 1 1 1 1 2 2 3 3 5 7 9 11 12 13 13 13 12 13 13 13 13 13 14 14 14 14 14 14 14 14 14 17 21 25 28 29 28 28 29 29 30 30 30 30 28 26 24
3 6 9 11 12 13 15 15 13 11 10 11 12 13 13 12 11 11 11 12 11 10 9 8 12 15 12 15 18 8 1 3 3 3 2 2 1 1 0 0 1 1 1 2 2 3 3 4 4 6 8 9 11 12 12 13 13 13 13 13 14 17 16 15 14 13 13 13 12 12 13 15 18 24 27 28 29 29 30 30 30 30 30 30 29 27
3 8 9 10 12 13 14 15 14 11 10 11 14 15 14 15 15 15 15 15 13 12 12 14 18 19 16 18 15 6 1 2 3 3 1 0 1 1 2 2 3 3 4 4 4 4 5 5 5 6 7 8 9 10 11 12 12 13 14 14 17 22 23 21 18 14 13 13 12 13 13 13 13 17 22 26 27 29 31 32 33 32 32 30 29 28
3 5 5 6 9 10 12 13 10 9 10 11 13 13 13 15 17 17 17 16 15 17 18 20 23 23 18 12 3 4 4 3 3 2 2 2 3 3 3 4 4 4 5 5 6 5 5 6 6 7 8 8 9 10 10 11 11 13 14 14 18 23 26 26 24 19 16 15 14 14 14 14 13 13 16 19 23 26 29 31 33 34 34 34 32 31
3 4 0 1 6 9 9 10 9 8 9 11 11 12 14 17 17 16 16 16 15 17 19 20 22 18 8 2 6 5 3 2 2 1 2 3 4 5 5 6 5 5 6 6 6 6 6 7 7 8 9 9 10 10 10 10 11 12 13 13 15 18 22 23 22 20 19 18 18 17 16 16 16 16 16 15 17 21 26 28 30 31 33 34 35 35
3 3 2 2 6 6 6 9 10 7 8 11 12 15 18 17 14 14 14 13 14 15 17 17 16 9 0 5 4 4 3 1 2 3 4 4 5 6 7 7 7 7 7 7 7 7 7 7 8 9 10 11 12 12 11 11 11 12 13 13 14 18 21 20 18 18 20 21 21 20 19 19 20 22 22 19 18 20 23 26 28 30 31 34 36 36
2 2 2 3 5 5 7 9 5 4 7 11 10 13 16 15 15 16 14 15 17 15 13 11 7 2 3 4 2 2 1 2 4 4 5 5 5 7 8 9 9 8 7 8 8 8 8 8 9 10 12 13 13 14 14 12 12 13 13 15 18 21 23 22 19 18 20 22 22 20 19 20 22 26 27 24 21 22 23 24 26 27 28 32 35 36
4 5 5 4 5 7 7 4 2 4 10 8 2 5 9 10 12 14 15 15 11 5 4 3 0 3 5 4 1 1 3 4 5 5 5 5 5 7 9 10 10 8 8 8 8 8 8 9 11 12 13 14 14 15 15 13 13 14 14 15 19 22 23 23 22 20 20 21 21 19 18 19 22 26 29 26 22 22 24 24 23 24 26 28 30 32
7 7 7 6 7 6 2 1 4 10 8 3 3 1 2 4 6 11 15 13 5 2 3 3 4 6 5 1 1 3 5 6 6 7 7 7 7 8 9 10 9 9 9 8 8 8 9 10 12 13 13 14 14 14 14 14 14 15 15 15 18 21 22 23 24 23 21 21 21 19 17 18 21 25 29 27 22 23 26 26 25 26 27 25 25 26
9 7 5 5 6 4 2 6 9 6 3 6 7 3 2 3 6 9 11 9 6 6 7 7 6 6 5 4 4 5 5 5 6 7 9 8 8 8 10 11 10 9 9 8 9 9 10 13 14 15 15 15 14 14 15 15 15 16 19 21 21 23 24 24 24 23 21 21 22 20 18 19 22 26 29 27 22 24 29 30 30 32 30 25 25 24
10 8 5 5 6 4 5 9 9 6 7 9 8 3 2 2 4 4 5 4 5 6 5 6 6 6 5 6 6 4 3 3 5 8 9 8 8 10 12 12 12 12 11 11 13 13 14 15 15 17 17 16 16 17 15 15 16 17 21 25 25 26 28 25 22 21 21 22 22 21 21 22 25 29 31 26 21 25 31 33 35 38 33 26 26 25
10 9 6 6 6 4 5 7 7 7 7 4 3 2 2 1 0 1 3 2 4 5 4 5 5 5 5 6 6 2 2 3 6 7 6 5 7 9 11 12 15 16 14 14 16 16 16 15 15 17 17 16 19 21 16 15 17 18 20 23 23 24 26 24 22 20 21 22 21 21 23 27 29 31 30 25 23 27 33 36 39 40 34 25 24 26
6 7 7 7 7 6 7 7 7 8 5 1 3 4 3 1 1 1 4 4 2 4 4 4 4 6 5 7 6 2 2 5 7 6 6 5 5 7 9 11 14 17 17 17 18 17 16 15 15 17 18 18 20 21 19 21 23 21 21 22 21 21 22 22 22 22 22 22 21 20 23 28 31 32 29 26 28 32 36 37 38 38 32 25 24 26
3 3 5 7 7 8 9 8 7 6 3 1 4 4 3 3 3 3 8 5 3 5 6 6 6 7 6 7 6 4 5 7 7 7 9 9 7 7 10 13 14 16 18 18 17 14 13 14 15 16 18 18 18 21 24 27 27 25 24 23 22 21 21 22 22 22 22 23 22 22 26 30 32 31 29 29 33 35 35 34 32 31 29 28 27 27
2 2 4 6 8 10 10 8 7 5 4 5 7 4 5 4 2 6 8 1 5 7 6 6 8 9 8 8 6 5 7 9 10 11 12 12 10 9 11 15 17 19 18 15 13 12 12 13 14 16 18 20 20 23 26 27 26 25 24 23 22 24 24 23 23 22 23 24 25 28 32 33 32 32 32 33 34 35 35 32 29 27 28 28 28 28
2 1 3 5 6 7 8 8 8 6 4 6 4 3 6 3 4 5 3 3 5 7 6 6 9 9 9 9 8 8 9 10 12 12 11 12 12 12 13 16 17 17 15 12 11 11 11 14 17 19 21 23 21 22 25 26 25 25 23 22 24 26 26 25 25 26 27 29 31 34 35 35 33 33 35 36 34 33 34 33 29 27 28 28 28 30
3 2 4 4 4 4 5 6 6 6 3 4 4 4 4 6 3 1 1 1 3 5 5 6 8 7 8 9 9 10 11 11 12 12 12 12 12 12 14 13 11 11 11 11 12 11 12 15 19 20 22 23 22 20 22 24 25 25 24 24 27 28 27 27 29 31 33 35 36 36 36 35 35 35 36 36 34 31 32 33 30 28 28 27 27 28
3 4 5 4 3 3 5 5 4 4 2 4 5 3 4 4 2 3 4 6 6 5 4 4 6 6 7 7 9 10 10 11 11 12 12 12 12 11 10 10 10 11 12 14 15 14 14 16 19 21 24 25 23 20 21 23 25 26 26 27 29 29 27 29 32 34 36 38 38 38 38 37 37 37 36 36 32 28 29 31 30 28 28 27 26 27
5 7 6 4 2 4 6 4 2 2 2 4 5 5 6 7 7 6 6 7 6 5 4 4 6 8 6 7 8 9 9 10 11 11 11 11 10 9 8 9 11 13 13 14 15 15 16 17 20 23 26 27 25 22 22 23 23 25 28 29 29 28 28 31 34 35 37 39 38 38 39 40 39 38 37 35 32 30 31 32 30 28 27 26 26 27
6 5 1 2 4 5 6 7 5 6 8 7 7 7 8 10 10 7 6 7 6 6 5 4 7 9 7 6 6 7 9 9 9 9 9 9 9 9 9 10 13 13 14 14 15 17 19 20 21 22 25 29 27 23 23 24 23 24 29 31 30 30 31 34 36 36 37 38 37 37 38 39 39 37 34 33 32 31 32 32 30 29 28 26 26 27
8 6 3 5 7 6 7 10 9 10 12 12 10 9 8 9 9 7 6 7 7 6 5 4 5 6 6 4 5 7 8 6 6 8 8 7 8 9 8 10 13 13 14 14 15 18 19 19 20 22 25 28 28 25 24 26 25 25 28 30 30 31 33 35 35 35 36 36 35 35 35 34 34 34 33 32 31 30 30 29 28 28 27 26 25 25
5 5 6 9 10 8 11 15 14 12 13 12 10 9 8 9 10 9 7 6 5 4 2 1 2 2 2 2 3 4 6 4 4 7 8 7 7 7 8 10 13 14 15 16 15 16 17 18 20 22 24 27 29 27 27 27 28 28 28 29 30 32 34 35 34 34 35 36 34 34 33 31 31 32 31 30 29 28 28 27 26 27 28 28 27 26
3 3 4 6 8 9 12 16 15 13 14 14 12 12 10 10 11 10 6 3 3 2 2 2 1 1 0 1 1 2 5 5 4 6 8 8 7 7 9 11 13 14 16 16 16 16 17 18 20 23 25 27 27 28 28 28 28 29 30 31 33 34 34 34 34 34 35 34 33 31 30 29 29 29 28 29 29 29 29 29 28 30 32 33 32 31
5 6 5 4 6 9 11 13 12 9 11 13 11 9 8 7 7 7 4 3 3 3 2 2 1 2 1 1 0 2 5 5 4 6 8 8 8 9 11 13 14 15 15 16 17 18 17 18 20 23 26 27 27 27 28 29 31 33 35 36 36 34 33 33 34 34 33 32 31 30 29 29 29 28 29 30 29 30 31 31 31 32 35 37 37 36
9 11 9 7 9 12 12 13 10 7 10 13 10 4 3 3 4 6 4 3 4 3 2 1 1 2 2 2 1 3 4 5 6 7 8 8 9 11 12 12 14 16 17 17 17 18 20 20 21 23 26 27 27 27 29 32 36 40 42 40 36 35 34 33 32 32 31 30 30 30 30 31 31 30 30 30 30 30 31 31 31 33 35 36 36 34
Wind_Direction
201 201 189 217 233 234 218 215 235 260 312 289 272 269 268 276 276 274 278 281 303 295 277 273 281 289 289 284 278 274 274 273 274 281 286 277 271 270 277 304 353 354 346 326 293 293 308 322 332 332 328 322 314 302 290 274 263 256 248 243 241 237 230 222 216 214 212 209 210 214 218 223 224 224 226 227 227 227 227 227 226 226 225 224 224 223
217 217 207 229 242 256 241 227 245 262 269 258 260 270 268 267 271 272 281 290 343 317 272 269 282 291 292 286 274 266 267 269 275 283 275 266 265 276 332 351 358 359 328 296 294 314 336 347 354 353 350 344 336 329 319 302 283 269 255 245 240 237 231 224 220 217 215 213 213 215 219 220 220 223 226 226 228 229 228 229 228 227 226 225 224 224
214 224 226 234 239 48 70 181 229 243 251 254 251 262 268 266 275 272 267 287 33 285 287 298 295 293 284 277 273 269 263 263 268 262 258 265 280 313 347 340 341 350 323 311 332 353 356 358 3 4 3 1 0 0 353 342 327 301 272 254 243 237 235 231 226 224 221 219 219 220 222 221 220 226 229 229 230 231 231 230 230 228 227 226 225 224
222 224 233 239 215 193 235 206 213 245 246 242 242 255 266 265 274 270 249 343 10 278 294 304 292 282 272 263 266 279 270 262 261 255 259 291 326 329 339 342 352 351 331 344 1 3 5 10 12 12 7 5 11 14 9 2 354 339 308 274 254 244 240 236 232 230 227 224 225 224 225 227 225 231 234 233 234 235 233 231 231 230 228 227 225 225
246 216 202 237 192 216 237 223 221 246 249 236 231 240 259 263 263 265 282 343 313 279 305 314 295 272 262 236 134 235 248 264 264 260 282 25 56 14 23 32 7 4 10 8 2 3 16 21 21 19 12 9 14 15 12 9 2 354 342 313 279 258 248 242 239 237 230 226 226 223 225 229 229 234 236 234 234 234 233 232 232 231 229 228 227 226
262 234 128 168 171 203 221 230 227 227 251 257 227 228 246 262 269 273 295 333 307 275 50 348 320 286 160 116 178 259 273 274 274 289 341 22 61 61 49 39 33 40 33 18 7 10 21 28 29 26 20 15 12 13 16 15 10 5 360 349 325 288 259 251 246 241 232 225 222 216 215 217 220 227 227 226 225 224 228 231 232 233 232 230 229 228
264 64 135 189 172 169 204 245 230 198 240 268 237 228 243 257 267 275 293 312 297 295 30 12 308 288 259 214 253 276 263 260 270 360 28 37 48 57 56 43 42 42 31 22 19 18 24 31 34 30 24 18 11 13 20 22 18 14 11 7 356 334 294 273 259 245 234 225 221 217 215 216 217 222 225 223 220 222 226 227 229 233 233 232 230 229
165 86 85 165 181 187 214 250 214 178 223 263 46 14 234 249 257 251 267 260 276 309 301 189 233 281 284 240 248 245 240 256 277 24 55 58 43 36 52 50 45 40 29 23 18 15 24 31 36 37 29 21 15 17 23 25 23 20 17 15 11 1 339 302 282 254 239 229 223 222 222 225 228 231 236 230 223 225 225 224 227 230 231 231 230 229
129 160 166 157 180 211 217 256 166 177 214 306 57 46 92 81 219 185 247 258 277 312 282 183 174 271 279 214 229 246 249 281 298 45 62 64 47 39 49 50 47 42 33 27 21 22 30 31 35 41 35 25 21 21 25 27 28 26 23 21 18 12 3 336 312 276 250 239 231 229 228 232 236 237 243 241 231 229 227 227 228 228 229 231 230 229
108 190 198 173 195 220 198 26 136 187 208 106 125 106 88 86 84 142 267 283 278 281 263 185 171 251 289 190 181 238 289 286 246 88 70 69 62 51 48 46 43 39 34 29 32 35 35 33 35 42 39 31 27 25 28 32 33 31 27 25 23 17 10 354 336 307 272 252 241 240 237 238 241 240 243 244 239 235 232 231 229 228 229 230 230 229
137 131 224 205 218 208 110 69 17 175 115 135 163 136 105 137 97 150 264 306 274 266 253 186 182 218 274 201 175 175 153 277 280 49 65 74 67 54 43 39 35 31 28 23 29 35 33 32 35 38 37 32 29 28 30 33 33 32 31 28 25 22 15 3 350 330 300 275 256 251 248 247 248 248 249 248 245 239 232 231 229 227 227 228 230 229
172 187 216 206 191 119 116 107 54 82 106 197 198 303 284 243 171 193 170 158 251 264 274 141 178 214 237 232 133 199 204 199 299 354 48 72 67 56 46 39 32 27 28 26 25 27 26 28 31 33 33 30 29 29 29 30 31 32 31 29 29 27 21 12 0 346 322 299 279 268 263 261 258 256 257 255 252 245 236 236 232 227 225 226 228 228
200 201 202 64 182 178 170 161 120 137 186 206 205 231 270 283 261 245 232 200 245 260 61 73 131 228 243 243 242 261 282 57 71 26 61 79 67 60 53 44 37 29 32 33 27 24 23 23 25 26 27 26 27 28 27 27 29 30 30 30 31 29 26 22 13 3 348 325 304 288 279 275 270 264 263 260 259 254 247 242 236 230 228 226 227 230
259 221 144 168 236 189 184 197 209 199 182 187 195 194 216 253 267 262 253 255 268 264 95 121 182 245 273 259 234 249 330 57 73 66 76 80 72 68 61 49 43 35 33 34 30 28 25 23 24 25 24 26 26 25 25 26 26 28 29 30 31 31 30 30 26 19 9 352 332 313 294 284 280 274 272 269 266 264 257 249 243 239 236 234 235 238
265 284 177 174 184 164 185 210 223 118 164 184 182 181 223 244 256 264 254 260 276 286 119 152 181 261 301 26 196 147 78 76 82 79 79 79 76 75 62 49 43 37 32 30 31 31 27 23 23 24 25 26 25 24 26 26 24 26 27 27 29 29 29 31 30 26 21 12 0 346 322 298 287 281 279 278 273 270 264 257 252 249 246 244 244 246
241 266 166 127 357 164 183 210 79 97 176 172 112 194 249 242 223 258 272 266 295 307 240 203 226 263 278 281 243 131 104 93 82 77 75 71 66 60 53 45 41 40 35 31 30 28 28 27 25 24 24 25 24 25 26 26 24 24 24 25 28 29 29 32 33 30 26 22 16 9 353 327 309 299 291 284 279 276 272 268 264 259 255 253 252 252
242 260 91 76 271 174 166 60 122 223 233 144 157 205 226 31 203 260 275 243 313 274 257 238 260 271 279 286 237 119 114 98 79 72 71 67 60 58 53 45 41 42 39 35 32 28 27 28 27 25 24 24 24 24 24 24 24 24 23 24 26 27 28 30 32 31 29 28 24 18 9 357 345 331 316 301 291 285 281 276 272 268 265 261 259 257
266 276 222 171 218 165 29 341 170 303 325 141 184 223 114 32 296 250 264 251 230 254 249 237 261 275 280 278 110 116 120 105 87 78 75 70 64 65 61 51 44 41 39 36 33 30 29 29 29 27 26 27 26 25 25 24 24 25 26 27 28 28 27 26 27 28 27 28 28 24 20 14 7 357 342 326 312 301 292 285 280 275 272 269 266 263
318 282 264 171 227 102 81 266 222 175 16 121 240 301 348 243 233 201 225 249 244 253 250 233 249 260 257 256 235 142 128 109 97 87 77 68 65 68 66 60 50 42 37 34 31 28 27 28 28 27 28 28 28 26 25 23 23 25 27 28 29 29 28 26 25 25 25 26 26 25 24 22 19 13 2 348 334 318 305 296 291 285 280 277 273 268
36 278 285 48 34 87 131 215 221 177 123 100 254 270 289 260 259 234 218 276 258 259 262 247 244 245 248 263 256 134 107 93 94 89 76 69 72 72 70 68 57 51 45 33 33 31 28 28 27 27 28 27 27 25 22 20 21 23 25 26 27 26 24 24 23 23 22 22 22 22 23 23 22 20 15 7 355 337 321 310 302 296 291 285 280 274
76 252 262 247 103 234 207 203 216 219 200 198 218 225 220 217 264 272 246 235 247 257 261 259 254 247 255 16 99 108 89 79 93 96 95 93 94 92 87 89 83 74 63 42 36 32 26 27 26 27 27 27 27 26 24 22 22 23 22 22 23 22 21 20 19 19 19 19 19 19 20 20 19 19 18 16 9 354 338 326 315 308 302 292 285 279
230 225 246 259 246 246 255 225 201 242 231 217 227 224 232 232 235 260 247 216 226 247 257 264 263 248 107 74 102 108 103 111 118 120 124 122 122 120 105 90 77 64 52 43 38 32 26 24 22 23 24 24 24 23 22 22 22 22 21 19 18 19 18 16 15 15 14 14 14 15 15 15 16 17 16 15 12 4 352 341 327 318 310 300 291 285
285 206 242 258 251 255 270 286 119 207 178 222 245 228 250 251 229 249 259 250 244 252 279 277 263 245 80 86 111 118 127 131 131 131 124 117 109 96 79 65 55 41 36 31 24 22 19 14 14 15 17 19 21 21 20 20 20 19 17 16 16 15 14 13 13 11 8 7 7 7 8 10 11 13 13 12 10 7 3 357 346 333 318 305 298 290
25 240 248 258 257 263 270 218 92 84 157 210 247 237 260 263 256 259 267 292 281 258 268 268 253 245 40 89 122 125 134 129 119 118 113 104 85 62 50 42 35 27 24 21 15 14 10 7 10 11 11 13 14 15 15 16 15 13 13 15 14 12 11 11 11 10 8 5 3 1 2 3 5 6 7 7 6 5 5 3 360 352 338 318 304 295
303 264 281 286 277 271 261 233 144 55 120 231 275 287 265 259 272 278 271 275 257 227 231 250 258 248 138 147 148 130 127 121 108 103 103 104 93 67 52 39 29 24 21 16 11 8 6 6 7 6 7 8 8 9 9 8 7 7 7 7 7 5 4 5 6 6 6 5 4 2 1 359 359 359 0 1 0 1 1 0 0 359 354 339 318 304
272 261 274 285 279 270 270 271 270 272 358 328 294 284 296 280 276 287 278 267 261 229 231 250 270 279 312 260 252 183 131 126 117 111 109 106 104 95 79 56 41 35 25 16 11 7 3 359 358 359 359 358 359 1 0 0 0 360 359 359 359 357 354 354 355 354 355 357 359 0 0 360 359 356 356 356 355 355 356 356 356 355 355 350 339 326
233 238 231 250 263 268 273 278 285 290 286 283 280 279 284 283 279 279 268 260 277 287 269 263 273 279 283 282 278 265 116 122 130 130 131 121 120 119 110 102 86 70 32 8 354 344 347 347 350 352 349 349 350 350 351 352 352 351 351 350 351 351 349 346 345 343 341 342 344 347 352 356 358 357 356 353 351 351 352 352 352 350 350 350 348 343
220 251 242 242 252 258 265 272 276 279 276 274 277 276 275 279 277 268 261 264 282 289 276 271 277 279 279 283 287 295 105 138 140 139 140 123 132 136 98 313 340 352 339 335 327 325 330 332 336 338 337 339 340 338 340 340 341 343 342 340 343 346 346 342 338 335 333 333 333 333 336 341 348 354 354 352 350 350 350 349 349 348 347 346 346 345
235 260 255 251 260 262 267 274 276 277 277 272 270 269 272 274 269 264 266 272 276 272 271 280 283 280 281 282 285 298 81 121 111 121 134 120 230 250 293 308 328 338 333 325 323 325 323 320 324 324 322 324 325 327 330 329 331 334 333 332 336 340 343 343 338 331 327 327 327 327 328 328 332 342 348 348 348 347 347 347 347 346 345 344 342 341
235 257 257 261 270 266 265 271 272 271 273 269 266 268 269 267 265 267 273 273 268 264 268 275 274 272 277 282 290 83 85 94 101 129 200 241 252 252 267 286 298 309 315 313 308 309 307 305 308 308 308 311 314 316 317 318 322 324 324 326 329 334 339 340 337 332 328 327 326 326 326 325 324 327 333 339 341 342 343 344 344 344 343 342 340 338
264 265 12 323 270 259 254 262 263 262 268 270 270 266 262 262 263 266 268 267 264 263 262 264 266 267 274 68 95 98 90 98 117 232 266 263 260 255 259 271 281 291 302 301 293 292 297 299 301 303 305 307 308 309 308 309 311 313 315 317 320 325 330 332 331 326 324 324 325 325 325 325 325 325 324 325 329 334 337 339 339 339 339 338 337 335
292 291 13 353 278 260 258 272 278 289 287 276 269 263 259 258 257 255 255 254 255 258 260 260 264 268 186 101 116 119 90 64 265 280 286 270 258 252 254 261 266 277 294 301 297 296 297 299 301 304 305 305 306 306 305 306 307 307 308 309 311 316 321 323 321 317 318 321 323 323 324 325 327 328 328 325 322 326 330 332 334 335 335 334 334 332
226 247 303 292 274 267 269 277 299 338 294 269 252 251 252 250 251 253 251 251 253 257 263 267 272 266 120 118 140 145 52 302 275 275 278 272 265 251 246 251 255 264 286 298 298 296 295 296 297 297 299 300 301 303 303 302 299 297 299 302 305 309 313 316 315 312 312 315 317 318 319 321 324 326 328 326 321 322 326 328 330 331 330 329 329 328
213 229 247 250 259 269 274 297 9 258 260 264 239 233 247 252 257 259 258 259 259 261 271 284 47 132 136 120 128 249 295 291 275 271 266 260 266 259 251 249 249 260 285 294 293 294 293 292 291 289 289 290 292 296 298 294 291 290 288 291 296 301 305 308 309 308 307 308 310 310 311 315 318 321 325 324 318 318 323 324 324 324 324 324 323 321
231 239 250 251 256 265 276 353 261 246 247 298 14 153 226 267 265 263 268 268 257 161 195 203 158 162 171 176 261 259 272 277 275 279 274 268 271 271 270 265 256 265 287 297 298 300 299 294 293 290 288 288 289 291 291 289 289 290 287 285 289 293 298 301 302 302 301 301 303 303 305 309 312 316 321 320 315 314 318 319 318 318 319 318 314 311
234 241 247 243 244 255 225 222 243 261 322 312 287 230 160 249 247 254 271 262 205 186 209 209 184 176 192 236 260 256 263 274 278 274 267 267 271 268 267 267 261 263 277 288 290 292 294 293 293 291 289 289 288 286 286 288 290 291 292 292 291 292 296 297 296 296 296 296 298 299 300 304 307 311 315 315 310 310 313 315 315 315 316 314 309 304
229 236 239 240 235 235 239 236 248 299 314 287 274 242 174 241 236 239 281 261 179 181 203 195 187 187 205 244 257 249 243 266 277 267 252 242 251 260 260 260 258 258 263 272 276 277 281 283 285 286 287 288 289 289 288 288 290 291 292 292 291 293 295 294 290 289 290 290 292 293 295 299 303 307 310 310 305 304 308 310 310 311 312 311 306 300
227 230 225 241 244 228 244 253 257 276 278 262 258 238 203 267 279 172 289 274 161 172 188 173 190 216 236 257 257 213 169 243 270 278 267 235 241 259 262 255 254 254 257 265 272 274 276 279 282 286 289 291 294 296 297 298 299 297 292 290 290 291 291 289 286 285 285 285 286 287 290 294 298 302 304 302 297 299 303 304 305 307 307 303 298 295
218 229 221 237 252 236 238 249 246 255 266 222 223 225 179 164 156 182 287 292 155 178 195 176 218 246 247 257 257 209 206 260 268 282 298 293 272 270 271 263 254 252 254 259 265 270 277 286 290 292 292 292 295 300 305 308 307 302 293 290 290 286 282 283 285 286 286 286 286 285 287 291 295 297 297 293 292 296 299 300 301 302 301 297 293 292
169 213 211 221 237 236 238 247 249 258 283 247 228 216 154 140 151 241 283 289 155 193 204 188 225 252 251 257 257 225 233 262 279 293 303 304 295 278 278 277 268 261 260 263 270 281 295 301 300 298 297 296 299 305 309 310 309 303 295 293 290 283 281 284 288 289 289 288 287 285 287 290 293 293 291 288 291 295 295 295 295 295 295 294 292 290
149 206 215 217 229 235 237 244 253 259 259 247 239 196 139 134 191 254 271 240 162 213 216 194 223 249 253 255 255 242 245 262 279 291 296 297 294 286 280 279 275 271 270 276 293 311 316 308 303 301 300 300 302 306 310 311 307 299 296 295 290 286 289 294 295 294 291 288 286 287 288 290 290 289 287 287 291 293 292 290 289 287 288 290 290 288
174 181 226 221 225 236 239 248 262 266 237 227 229 127 133 184 245 254 244 137 176 224 225 211 228 244 252 253 254 259 267 274 280 284 287 286 287 287 285 284 283 281 285 299 314 323 320 311 306 302 301 302 304 308 313 314 306 300 297 293 290 293 299 301 300 298 294 290 289 289 289 289 288 286 287 288 290 290 289 288 286 284 285 286 284 283
201 203 239 220 200 228 245 240 251 268 236 176 149 117 168 212 246 303 276 224 237 243 232 225 231 239 250 258 262 265 270 274 276 278 278 277 279 285 291 298 304 305 312 318 319 322 321 312 305 302 303 306 307 311 318 316 309 304 300 295 296 301 303 302 302 300 296 293 291 290 289 288 288 287 287 288 288 286 285 285 285 283 283 283 280 279
203 213 247 236 174 201 242 226 216 262 281 152 167 201 214 220 267 322 299 292 289 274 253 250 258 256 250 257 267 270 272 274 274 276 279 283 290 299 310 324 328 320 318 316 315 320 320 312 308 307 307 309 311 315 319 316 310 306 301 300 304 306 304 304 304 301 296 294 292 290 290 289 289 289 288 287 287 284 281 281 282 281 280 279 277 277
205 210 240 259 205 208 252 255 210 250 259 180 201 247 268 270 273 271 268 274 277 274 274 280 283 280 265 254 262 268 270 271 275 282 290 297 306 317 325 325 318 312 311 311 314 321 324 319 315 313 310 309 313 316 317 315 312 308 304 306 308 308 307 307 305 300 296 294 292 291 291 291 291 290 288 287 286 282 279 279 278 277 276 274 273 272
233 225 217 291 255 247 263 260 238 247 258 244 231 238 250 262 271 272 262 260 263 271 274 269 275 283 279 263 260 264 268 275 286 294 300 303 306 314 318 313 309 310 312 315 322 329 330 325 318 314 311 310 313 318 318 315 313 308 306 307 307 306 305 304 301 298 295 293 291 291 292 292 291 290 287 285 283 279 275 274 273 272 271 269 268 267
245 227 201 239 253 258 263 257 245 248 259 261 257 249 241 243 252 256 256 261 270 277 275 263 262 272 278 272 262 265 274 292 305 300 299 301 301 307 311 305 305 311 315 321 327 330 330 326 319 316 314 311 313 318 316 312 310 308 306 305 305 304 304 301 298 297 294 293 292 293 292 291 290 289 287 285 281 276 272 270 268 267 266 265 264 264
231 199 203 233 243 245 254 261 262 259 259 260 260 260 258 254 253 254 253 258 271 277 277 256 240 245 264 275 267 274 286 301 306 295 295 298 299 301 304 303 308 315 317 321 326 329 330 325 318 315 312 308 310 314 312 309 308 307 306 304 303 303 302 300 298 296 293 293 293 293 292 290 288 287 287 284 280 276 272 269 267 265 263 261 260 261
200 165 181 215 238 245 252 258 262 265 266 260 250 245 251 255 260 264 261 242 243 236 158 120 130 141 191 253 256 286 288 287 289 290 290 292 295 300 306 310 314 316 318 321 325 328 327 321 315 311 307 305 307 309 307 303 302 302 302 301 301 302 300 297 296 295 293 293 292 291 290 289 286 285 284 283 280 276 272 268 265 264 263 260 257 255
215 220 201 190 239 252 249 246 244 249 265 266 255 239 235 241 252 257 241 191 192 206 174 146 150 139 144 192 264 289 280 280 290 290 286 289 299 305 312 317 317 317 320 322 321 320 319 315 311 308 303 301 303 303 300 298 298 300 301 301 301 301 297 294 294 294 292 292 292 291 291 289 287 286 285 283 282 280 277 273 267 264 265 265 262 257
222 229 217 209 235 246 248 245 235 225 251 267 269 235 178 184 224 234 227 191 172 167 156 169 196 191 190 213 263 276 277 287 298 297 292 293 302 308 314 320 320 317 318 320 319 317 316 313 309 303 298 297 299 297 295 296 298 301 304 304 303 301 296 293 293 294 293 293 291 291 291 289 287 286 285 283 282 282 282 281 278 273 269 268 269 268
Height
824 826 827 822 813 809 810 811 808 808 814 819 821 820 818 816 809 800 794 788 793 801 796 789 784 779 777 774 770 766 761 758 753 752 755 751 744 740 740 743 747 748 746 745 742 739 739 739 738 737 735 734 733 732 732 733 733 734 735 737 737 739 741 743 744 745 747 749 751 753 754 754 756 758 759 760 760 762 763 764 767 769 772 774 776 779
826 826 822 812 805 805 809 810 811 814 817 819 820 819 817 815 808 798 794 790 795 804 796 787 785 782 777 771 764 761 760 756 751 752 750 742 737 737 742 746 747 747 745 743 740 739 738 737 738 737 735 735 734 733 733 733 733 734 735 736 737 738 739 741 742 743 744 746 748 749 751 752 755 756 756 757 758 759 761 762 765 767 769 772 774 776
828 824 816 806 805 811 815 816 817 818 817 817 817 820 819 812 803 797 795 795 803 805 793 787 789 784 774 764 757 755 756 752 749 746 741 737 738 741 745 747 747 747 745 743 741 740 738 738 738 738 737 736 735 734 733 733 733 733 734 735 736 737 738 739 741 742 743 744 746 748 750 751 754 754 755 756 757 758 759 761 763 765 767 769 772 774
824 817 809 805 808 815 817 818 820 819 818 816 815 818 816 807 806 803 797 800 805 802 796 795 790 777 764 756 751 751 753 751 745 739 737 740 744 747 748 748 748 747 746 745 744 742 742 741 740 739 739 737 735 734 734 733 733 733 733 734 735 736 737 738 740 741 742 744 745 747 748 750 753 754 754 756 757 758 759 761 762 764 766 767 770 772
813 810 810 810 813 816 817 818 820 819 814 811 813 816 811 803 805 803 797 802 801 797 800 796 780 765 756 754 749 746 752 751 740 734 738 743 746 748 747 748 749 748 749 749 748 748 746 744 743 743 742 740 737 736 735 734 734 733 733 734 734 736 737 738 739 740 742 743 744 746 747 750 751 753 753 755 756 758 760 761 763 764 765 767 768 770
809 809 813 815 817 819 819 816 814 815 812 809 809 808 804 802 802 801 801 808 803 797 801 800 788 770 755 756 752 745 750 746 733 733 740 742 745 748 748 748 750 749 751 753 754 753 750 747 746 745 743 742 740 738 737 736 736 735 734 734 734 735 736 737 738 740 742 743 744 745 746 748 749 750 750 751 753 755 756 758 761 762 763 765 767 768
812 813 815 816 818 821 823 817 809 811 815 811 806 803 804 804 805 807 809 811 805 799 801 804 804 785 760 756 754 747 748 741 733 736 741 745 749 749 750 750 750 752 755 757 757 758 755 751 747 746 745 745 745 743 740 738 737 737 736 735 735 735 736 737 738 740 742 743 744 745 746 747 747 748 748 749 750 751 752 754 756 758 760 762 764 766
813 817 820 818 819 821 822 815 806 810 814 810 809 809 808 807 810 813 813 811 806 803 803 804 806 796 773 762 755 748 746 740 737 740 744 751 754 752 752 752 754 758 759 759 762 762 758 753 749 748 749 750 750 747 743 741 739 739 738 737 737 737 737 738 738 740 741 743 744 745 746 747 748 749 750 750 751 751 751 752 753 755 756 758 761 763
812 815 816 817 820 819 813 807 806 809 810 810 814 816 812 812 814 813 811 809 807 808 804 799 804 799 776 762 759 754 753 749 744 744 750 756 756 754 755 757 760 763 763 765 768 765 759 757 755 752 754 755 753 750 747 745 743 742 741 740 739 739 739 739 740 740 741 743 744 745 746 747 748 749 750 751 751 752 752 752 753 753 754 755 757 759
810 813 813 812 813 809 804 809 812 808 807 815 820 817 815 817 816 814 811 806 808 811 800 792 798 794 773 757 757 759 759 755 745 743 754 758 756 758 760 763 767 768 770 772 770 765 762 762 760 756 757 758 756 754 752 749 746 745 744 743 742 741 741 742 742 742 742 743 744 745 746 746 747 748 749 750 750 751 752 752 753 753 754 754 754 756
809 816 816 809 805 801 804 817 821 814 815 821 818 811 812 814 813 814 810 807 811 804 787 781 785 789 780 759 750 753 755 753 748 746 754 757 755 761 767 770 773 772 772 772 768 766 765 765 761 758 759 761 760 758 755 752 750 749 747 746 745 744 744 744 744 744 744 744 745 745 746 746 747 748 748 749 749 750 751 751 752 752 753 753 753 754
811 815 811 803 802 803 805 813 822 823 822 820 813 808 810 809 808 812 811 812 812 794 781 784 785 788 784 762 749 748 747 751 753 752 757 758 758 766 773 776 777 776 773 772 770 768 766 765 762 761 763 764 762 760 758 757 755 753 751 750 748 747 747 747 747 746 746 746 746 746 747 747 748 748 748 748 748 749 749 750 751 751 752 752 752 752
805 806 803 801 803 804 802 806 817 821 819 817 813 812 815 812 810 812 808 808 802 788 788 796 793 790 776 756 749 745 742 749 755 757 761 760 763 772 777 780 781 780 777 774 773 771 770 768 766 766 767 767 765 764 763 761 759 758 756 754 753 751 750 750 749 749 748 747 747 748 748 749 749 748 748 748 748 748 749 749 750 750 750 750 750 749
798 799 803 804 799 797 798 799 803 806 810 813 808 808 814 813 816 815 807 806 798 787 795 800 795 788 769 751 745 742 746 756 759 763 766 765 770 778 781 783 783 781 778 777 777 777 777 776 774 773 772 770 769 768 767 765 764 762 760 759 757 755 753 751 750 749 749 748 748 749 749 750 750 748 748 748 748 748 748 748 748 748 748 748 747 747
804 798 795 795 791 791 794 789 788 793 802 806 800 802 805 801 808 810 800 799 790 782 794 802 794 780 763 753 747 745 755 762 762 766 770 771 776 780 782 783 781 781 782 783 783 783 782 781 779 778 776 774 773 771 770 768 767 765 764 762 759 757 755 752 751 750 749 749 749 749 749 750 750 749 747 747 747 747 747 747 747 747 746 746 745 745
807 794 786 793 793 792 792 787 789 793 798 805 804 804 803 793 794 798 792 790 790 789 793 793 783 765 751 747 743 746 758 763 766 769 772 776 780 781 783 783 784 786 788 788 788 787 786 784 782 781 779 777 775 774 772 771 770 768 767 764 761 759 757 755 753 752 752 751 750 750 751 752 750 748 746 746 746 746 746 746 745 745 745 744 744 744
802 792 788 797 796 793 795 792 794 794 793 803 806 799 796 794 791 794 793 791 799 801 786 775 772 759 748 745 741 747 757 764 771 774 776 781 783 784 787 789 790 791 791 791 791 790 789 786 784 783 781 779 777 775 774 772 772 770 769 767 764 761 759 757 756 756 755 754 753 753 753 752 749 746 745 744 745 744 744 744 743 743 743 742 742 742
799 794 787 790 791 795 803 799 795 796 793 799 803 794 792 797 796 796 800 798 801 801 784 771 770 763 759 756 748 749 753 761 775 780 782 786 786 788 792 793 794 793 793 794 792 792 790 788 787 785 783 781 779 778 776 775 774 773 771 769 766 763 761 760 760 759 759 757 756 754 753 750 747 744 744 744 743 743 742 742 741 741 741 740 740 740
800 799 788 786 791 797 803 800 794 796 798 798 799 795 794 798 795 794 802 803 801 799 786 774 769 765 761 753 745 747 750 760 777 783 785 789 789 791 793 794 796 795 794 794 792 792 791 789 788 786 784 782 780 778 777 776 775 774 772 769 766 765 765 765 764 762 761 759 756 754 752 749 746 744 744 743 742 742 741 740 740 739 738 738 738 738
800 805 797 791 796 798 798 798 793 793 798 801 800 797 796 797 794 792 797 798 795 794 787 778 772 762 752 743 743 751 755 763 777 784 789 793 793 794 795 795 796 795 795 795 793 792 791 789 788 785 783 781 779 779 777 777 776 773 770 767 765 765 765 764 762 760 759 757 755 754 752 749 747 746 745 743 742 741 740 740 739 738 737 736 736 736
802 810 805 796 798 798 793 790 786 784 789 795 797 797 797 796 794 795 796 791 789 790 785 782 776 759 748 750 754 762 769 773 779 786 792 795 795 797 797 796 796 795 795 794 792 791 790 788 786 784 783 781 780 779 777 776 774 770 768 767 766 766 764 762 760 758 757 756 755 754 752 751 749 747 746 744 743 742 740 739 738 737 736 735 734 733
802 806 805 797 796 794 784 781 783 782 784 787 789 789 788 788 792 797 794 783 779 781 779 781 777 760 756 763 766 773 780 782 784 789 793 796 797 798 797 797 796 795 794 792 791 790 788 787 786 784 783 781 779 777 775 773 771 769 768 768 768 767 765 763 761 759 758 757 756 755 754 753 751 749 747 745 744 742 741 739 738 737 735 734 733 732
802 804 803 797 792 787 779 780 787 788 786 788 788 785 785 787 789 794 792 782 777 780 781 784 780 768 768 775 775 779 784 784 787 789 791 795 797 796 796 795 794 793 791 791 789 788 787 786 785 783 781 780 778 776 774 773 772 771 771 770 769 768 767 766 764 762 761 759 758 757 755 754 752 750 748 746 744 743 741 739 737 736 735 733 732 731
806 805 804 798 789 783 781 783 791 793 791 792 791 789 793 795 791 791 793 791 792 789 784 786 780 768 774 783 781 782 785 786 789 789 790 794 795 795 795 793 792 791 789 789 788 787 786 785 783 783 781 780 778 777 776 775 775 774 773 772 771 770 769 767 766 765 763 761 760 758 756 754 752 750 748 746 744 742 740 739 736 735 734 732 731 730
810 807 807 807 799 793 789 787 791 794 794 797 797 796 798 798 795 794 794 798 801 790 780 783 775 761 770 784 783 783 785 787 791 793 793 795 796 796 796 794 794 793 791 790 789 787 786 785 784 783 782 782 781 780 779 778 777 776 775 774 773 771 770 769 767 766 764 762 760 758 756 755 753 750 748 746 744 742 740 738 736 734 732 731 730 729
812 810 809 811 809 805 799 791 790 793 796 800 801 801 801 799 798 799 800 802 799 783 774 778 773 761 767 776 774 776 783 786 792 796 796 797 799 798 798 797 796 795 795 794 792 791 789 788 786 785 784 783 781 781 780 779 778 777 776 774 773 771 770 769 768 766 764 763 760 758 756 754 752 750 748 745 743 741 739 737 735 733 731 730 729 727
812 812 808 808 808 806 801 794 792 795 800 802 801 800 799 798 799 802 805 803 795 788 783 779 774 770 769 766 762 767 779 786 790 795 797 798 799 798 798 798 797 796 796 795 794 793 792 790 788 787 785 783 781 780 780 779 778 777 775 774 772 771 769 768 767 765 764 762 761 759 757 754 752 750 747 745 743 741 738 736 734 732 730 728 727 725
811 809 804 802 803 800 796 794 793 796 801 803 802 802 800 798 799 802 802 796 792 795 792 777 772 775 771 763 759 765 777 785 787 791 794 795 796 797 796 796 795 794 794 793 793 792 790 789 788 786 785 784 782 781 780 778 777 776 775 773 772 770 769 767 766 764 763 762 760 758 756 754 752 749 747 745 742 740 738 735 733 731 729 727 724 722
810 807 799 798 800 797 795 795 794 797 802 801 801 801 799 798 798 798 796 792 792 797 790 777 775 776 771 765 763 770 780 785 788 791 793 794 794 794 794 793 792 792 791 791 790 789 788 787 786 785 784 783 782 781 779 778 777 776 774 773 771 769 768 766 765 763 762 761 759 757 755 753 750 748 746 744 741 739 736 733 731 729 727 725 723 721
812 808 803 805 805 801 800 799 798 801 804 802 802 801 800 799 796 795 793 790 791 791 784 780 779 774 768 768 772 782 788 788 791 793 794 794 793 792 792 792 790 790 789 789 788 787 786 785 784 784 783 781 781 780 779 778 777 775 774 772 770 769 767 765 764 762 761 759 758 756 754 752 750 747 745 743 740 738 735 732 730 727 725 723 721 719
814 811 810 812 811 806 802 800 800 802 804 805 805 803 800 798 797 797 794 790 789 787 780 779 777 770 772 780 785 788 791 790 791 793 792 792 792 791 791 790 788 788 787 786 786 785 784 784 783 782 781 780 780 779 778 777 776 775 774 772 770 768 767 765 763 762 760 758 756 753 751 749 747 745 743 741 738 736 734 732 729 726 723 721 719 717
818 818 816 817 817 810 803 803 803 804 807 810 808 802 797 796 795 792 787 784 782 780 777 776 772 770 778 788 790 789 791 792 791 790 790 790 790 790 790 788 787 787 785 785 784 783 783 782 781 780 779 779 778 777 777 776 775 774 772 770 769 767 766 765 763 761 759 756 754 752 749 747 744 741 739 737 735 733 731 729 727 724 722 720 718 715
820 822 821 821 822 814 805 805 808 814 818 811 798 790 786 785 784 780 777 775 772 771 774 774 774 779 786 789 789 789 790 791 790 789 789 789 788 789 788 787 786 785 784 783 782 781 781 780 780 779 778 777 776 775 775 774 773 772 770 768 767 765 764 763 761 759 757 754 753 750 748 745 742 739 736 734 732 730 727 725 723 721 719 717 715 713
818 819 818 818 819 815 809 812 819 823 817 796 780 779 780 777 778 777 774 771 771 776 781 781 783 790 791 789 790 791 789 789 789 787 787 787 787 787 785 784 784 783 782 781 780 779 779 778 777 777 776 775 774 773 772 771 770 769 768 766 765 763 762 760 758 757 755 753 751 749 746 743 740 737 735 732 730 727 724 721 719 717 716 714 712 711
815 815 813 812 815 815 815 822 826 815 798 787 784 786 787 784 782 782 778 773 779 788 790 788 789 791 790 789 789 789 788 787 786 785 785 785 785 785 783 782 781 780 779 778 777 776 776 775 775 774 773 773 772 771 770 769 768 767 765 764 763 761 760 758 756 754 752 750 748 746 744 741 738 735 733 730 728 725 722 719 716 714 713 711 709 707
810 811 809 809 813 816 817 821 814 795 785 788 787 784 788 789 786 786 782 776 780 787 786 785 787 788 788 789 787 787 787 787 787 785 784 784 784 783 782 780 778 777 776 776 775 774 773 773 772 771 770 770 769 769 768 767 766 765 763 762 760 758 757 755 753 751 749 747 745 743 741 738 736 733 730 728 726 722 719 716 713 711 710 708 706 704
807 808 809 812 811 811 814 809 796 789 790 786 777 776 783 784 780 783 785 778 778 784 784 784 786 787 788 787 786 787 788 789 789 784 780 781 782 781 779 778 776 775 774 774 773 772 771 770 769 768 767 766 766 765 765 765 764 762 761 759 757 756 754 752 749 747 746 744 741 739 737 735 732 730 727 725 723 719 716 714 711 709 707 706 703 700
808 807 809 815 809 804 811 809 801 803 799 783 775 778 783 783 780 783 788 784 781 785 787 786 785 786 787 787 786 787 790 792 790 780 775 778 779 778 777 776 774 774 772 771 771 770 768 767 766 765 764 763 763 762 762 762 761 760 758 756 754 753 750 747 745 744 742 739 737 735 733 731 729 726 724 722 720 717 714 711 709 706 705 703 700 697
815 811 809 816 811 803 809 810 804 802 793 780 778 781 784 788 786 786 790 787 783 787 790 788 787 786 786 786 785 786 790 791 785 776 773 775 776 776 776 774 772 772 770 769 769 768 767 766 765 764 763 762 760 760 759 759 758 757 754 752 751 749 746 744 742 740 738 735 733 731 729 727 725 723 721 719 716 714 711 709 706 704 702 700 697 694
819 816 813 819 817 809 810 808 798 791 785 781 781 781 784 788 786 789 794 788 784 790 790 787 787 785 784 784 784 786 788 785 779 774 772 774 774 775 775 773 771 770 768 767 767 766 767 766 765 763 762 761 760 759 758 756 755 753 751 749 747 744 742 741 739 737 735 732 730 728 725 723 721 719 717 715 712 710 708 706 703 701 699 697 694 691
825 822 816 816 814 809 808 807 799 790 782 779 779 780 784 788 789 791 789 781 783 788 786 785 786 783 781 783 782 782 781 777 774 773 772 772 773 772 772 771 770 768 767 766 766 767 767 766 764 763 761 759 758 757 756 755 753 750 748 746 743 740 738 738 736 734 732 729 726 724 721 719 717 714 712 710 708 706 704 701 700 698 695 693 690 687
821 823 817 813 812 808 802 800 800 792 778 773 777 781 785 788 787 782 777 776 781 782 780 783 784 781 780 780 778 777 775 773 773 773 772 772 771 770 769 769 767 766 766 766 767 767 767 765 763 761 759 757 756 755 754 753 750 748 746 744 740 738 736 735 732 730 728 724 722 719 716 714 712 710 707 705 704 702 699 696 695 693 691 689 686 682
803 810 808 802 804 807 806 806 807 796 777 773 779 782 783 783 777 773 773 775 776 776 778 780 779 778 778 777 775 775 773 772 773 772 771 771 769 768 768 767 767 767 767 767 767 767 766 764 761 759 756 755 755 754 753 752 749 746 744 741 738 736 734 731 729 726 723 719 716 714 712 709 707 705 703 701 700 698 694 691 689 688 686 683 680 677
798 801 798 791 792 800 802 799 795 786 776 776 778 776 775 775 771 771 774 774 772 773 775 775 774 774 775 774 774 774 772 771 771 769 768 768 767 767 768 767 768 768 767 766 766 765 765 763 760 757 755 753 753 753 751 750 748 744 741 738 736 734 731 728 726 723 718 715 711 708 706 704 702 700 698 696 695 693 689 685 684 682 680 678 675 671
791 787 788 786 785 787 786 781 778 777 776 778 776 772 771 772 770 771 774 773 772 772 771 772 772 771 772 773 773 772 771 770 769 768 768 767 766 768 769 768 768 768 766 765 765 763 763 761 758 756 753 750 750 751 749 748 746 743 739 736 735 732 728 725 722 718 714 710 707 703 701 699 696 694 693 691 690 687 683 680 678 676 673 672 669 665
783 781 786 786 782 780 778 774 774 776 774 773 773 772 771 771 768 769 771 770 770 769 769 770 771 769 770 771 771 771 770 769 768 769 768 768 768 769 769 768 767 765 764 763 762 762 761 759 757 755 751 747 747 748 747 745 744 741 737 734 732 729 725 722 718 713 709 705 702 699 697 694 691 688 687 685 684 681 677 674 672 669 666 664 662 658
780 781 785 785 782 783 780 772 770 771 768 767 768 768 767 768 768 767 768 767 766 767 767 769 769 769 770 770 770 771 769 769 771 771 769 769 769 768 767 767 765 764 763 763 762 761 760 758 756 753 750 746 744 744 744 742 740 738 735 732 728 725 721 718 714 709 705 701 698 695 693 690 686 683 681 678 676 673 670 667 666 663 659 657 655 651
777 779 782 781 780 781 777 768 765 767 764 764 765 765 764 765 764 763 764 765 765 766 767 768 769 770 770 770 771 771 770 771 772 771 769 769 768 767 767 765 764 763 763 762 761 760 759 758 756 753 749 745 742 741 740 738 735 734 731 727 725 721 717 714 711 707 702 698 695 692 689 686 683 679 675 672 670 667 663 661 659 656 652 650 648 645
774 779 779 777 776 776 771 765 764 766 763 760 760 761 761 761 761 761 763 764 765 766 768 769 770 770 770 771 771 771 771 771 771 771 770 768 767 766 766 765 764 763 762 761 760 759 758 757 755 751 748 744 741 739 737 733 731 729 726 723 721 718 714 710 706 702 698 695 691 688 684 681 678 674 671 667 663 660 657 654 653 650 644 641 640 639
772 773 772 776 777 773 767 762 762 765 762 755 753 756 757 758 760 760 761 763 765 766 767 768 769 770 771 771 771 772 772 771 770 771 770 768 767 766 765 764 764 762 761 761 759 757 756 755 753 749 745 741 739 737 733 729 727 724 721 719 717 714 711 706 701 697 694 691 687 684 681 677 673 670 667 663 658 654 649 646 645 643 637 632 631 630
762 761 763 769 769 762 756 753 755 759 757 751 750 754 756 758 759 759 760 762 764 766 767 768 769 769 770 770 771 772 771 770 770 770 769 768 767 766 765 765 764 761 760 760 757 755 754 752 750 747 742 738 736 733 729 726 722 719 716 715 713 710 706 703 698 693 689 686 683 680 677 673 669 665 662 658 654 650 644 639 636 635 631 627 624 622